KAZSAT-3

Last updated on Tue Jul 01 2025 00:02:46 GMT+0000 (Coordinated Universal Time)

1 39728U 14023B 25181.57944086 .00000060 00000+0 00000+0 0 9993 2 39728 0.0134 15.5487 0000295 74.9316 95.4879 1.00271481 38934
UTC large
Height (km)
Speed (km/s)
/
Latitude / Longitude
Inclination (degrees)
Orbital Period (minutes)
Azimuth
Elevation
Range (km)
Doppler Factor

Next 0 passes for location: London (51.5072 / 0.1276)

Sorry there are no passes over London.